Time,TemperatureF,DewpointF,PressureIn,WindDirection,WindDirectionDegrees,WindSpeedMPH,WindSpeedGustMPH,Humidity,HourlyPrecipIn,Conditions,Clouds,dailyrainin,SoftwareType,DateUTC
2013-11-22 00:12:00,43.0,-99.9,-100.00,NNW,328,11.0,-999.0,-999,0.08,,,0.29,,2013-11-22 06:12:00,
2013-11-22 00:22:00,43.0,-99.9,-100.00,NNW,328,11.0,-999.0,-999,0.08,,,0.29,,2013-11-22 06:22:00,
2013-11-22 01:12:00,41.0,-99.9,-100.00,NW,321,13.0,-999.0,-999,0.05,,,0.34,,2013-11-22 07:12:00,
2013-11-22 01:22:00,41.0,-99.9,-100.00,NW,321,13.0,-999.0,-999,0.05,,,0.34,,2013-11-22 07:22:00,
2013-11-22 01:42:00,39.0,-99.9,-100.00,NW,312,15.0,-999.0,-999,0.01,,,0.35,,2013-11-22 07:42:00,
2013-11-22 01:52:00,39.0,-99.9,-100.00,NW,312,15.0,-999.0,-999,0.01,,,0.35,,2013-11-22 07:52:00,
2013-11-22 02:12:00,39.0,-99.9,-100.00,NW,321,14.0,-999.0,-999,0.01,,,0.35,,2013-11-22 08:12:00,
2013-11-22 02:22:00,39.0,-99.9,-100.00,NW,321,14.0,-999.0,-999,0.01,,,0.35,,2013-11-22 08:22:00,
2013-11-22 02:42:00,38.0,-99.9,-100.00,NW,318,16.0,-999.0,-999,0.00,,,0.35,,2013-11-22 08:42:00,
2013-11-22 02:52:00,38.0,-99.9,-100.00,NW,318,16.0,-999.0,-999,0.00,,,0.35,,2013-11-22 08:52:00,
2013-11-22 03:12:00,37.0,-99.9,-100.00,NW,316,15.0,-999.0,-999,0.00,,,0.35,,2013-11-22 09:12:00,
2013-11-22 03:22:00,37.0,-99.9,-100.00,NW,316,15.0,-999.0,-999,0.00,,,0.35,,2013-11-22 09:22:00,
2013-11-22 03:43:00,37.0,-99.9,-100.00,NW,317,11.0,-999.0,-999,0.00,,,0.35,,2013-11-22 09:43:00,
2013-11-22 03:54:00,37.0,-99.9,-100.00,NW,317,11.0,-999.0,-999,0.00,,,0.35,,2013-11-22 09:54:00,
2013-11-22 04:13:00,36.0,-99.9,-100.00,NW,317,19.0,-999.0,-999,0.00,,,0.35,,2013-11-22 10:13:00,
2013-11-22 04:24:00,36.0,-99.9,-100.00,NW,317,19.0,-999.0,-999,0.00,,,0.35,,2013-11-22 10:24:00,
2013-11-22 04:43:00,36.0,-99.9,-100.00,NW,316,15.0,-999.0,-999,0.00,,,0.35,,2013-11-22 10:43:00,
2013-11-22 04:53:00,36.0,-99.9,-100.00,NW,316,15.0,-999.0,-999,0.00,,,0.35,,2013-11-22 10:53:00,
2013-11-22 05:12:00,36.0,-99.9,-100.00,NW,326,19.0,-999.0,-999,0.00,,,0.35,,2013-11-22 11:12:00,
2013-11-22 05:22:00,36.0,-99.9,-100.00,NW,326,19.0,-999.0,-999,0.00,,,0.35,,2013-11-22 11:22:00,
2013-11-22 05:43:00,36.0,-99.9,-100.00,NW,324,15.0,-999.0,-999,0.00,,,0.35,,2013-11-22 11:43:00,
2013-11-22 05:53:00,36.0,-99.9,-100.00,NW,324,15.0,-999.0,-999,0.00,,,0.35,,2013-11-22 11:53:00,
2013-11-22 06:12:00,36.0,-99.9,-100.00,NNW,329,15.0,-999.0,-999,0.00,,,0.35,,2013-11-22 12:12:00,
2013-11-22 06:22:00,36.0,-99.9,-100.00,NNW,329,15.0,-999.0,-999,0.00,,,0.35,,2013-11-22 12:22:00,
2013-11-22 06:43:00,35.0,-99.9,-100.00,NW,313,14.0,-999.0,-999,0.00,,,0.35,,2013-11-22 12:43:00,
2013-11-22 06:52:00,35.0,-99.9,-100.00,NW,313,14.0,-999.0,-999,0.00,,,0.35,,2013-11-22 12:52:00,
2013-11-22 07:12:00,36.0,-99.9,-100.00,NNW,328,18.0,-999.0,-999,0.00,,,0.35,,2013-11-22 13:12:00,
2013-11-22 07:22:00,36.0,-99.9,-100.00,NNW,328,18.0,-999.0,-999,0.00,,,0.35,,2013-11-22 13:22:00,
2013-11-22 07:42:00,36.0,-99.9,-100.00,NNW,331,18.0,-999.0,-999,0.00,,,0.35,,2013-11-22 13:42:00,
2013-11-22 07:52:00,36.0,-99.9,-100.00,NNW,331,18.0,-999.0,-999,0.00,,,0.35,,2013-11-22 13:52:00,
2013-11-22 08:12:00,35.0,-99.9,-100.00,NNW,335,17.0,-999.0,-999,0.00,,,0.35,,2013-11-22 14:12:00,
2013-11-22 08:22:00,35.0,-99.9,-100.00,NNW,335,17.0,-999.0,-999,0.00,,,0.35,,2013-11-22 14:22:00,
2013-11-22 08:42:00,35.0,-99.9,-100.00,NNW,343,17.0,-999.0,-999,0.00,,,0.35,,2013-11-22 14:42:00,
2013-11-22 08:52:00,35.0,-99.9,-100.00,NNW,343,17.0,-999.0,-999,0.00,,,0.35,,2013-11-22 14:52:00,
2013-11-22 09:12:00,35.0,-99.9,-100.00,NNW,328,15.0,-999.0,-999,0.00,,,0.35,,2013-11-22 15:12:00,
2013-11-22 09:22:00,35.0,-99.9,-100.00,NNW,328,15.0,-999.0,-999,0.00,,,0.35,,2013-11-22 15:22:00,
2013-11-22 09:44:00,34.0,-99.9,-100.00,NW,324,13.0,-999.0,-999,0.00,,,0.35,,2013-11-22 15:44:00,
2013-11-22 09:54:00,34.0,-99.9,-100.00,NW,324,13.0,-999.0,-999,0.00,,,0.35,,2013-11-22 15:54:00,
2013-11-22 10:13:00,34.0,-99.9,-100.00,NNW,330,15.0,-999.0,-999,0.00,,,0.35,,2013-11-22 16:13:00,
2013-11-22 10:23:00,34.0,-99.9,-100.00,NNW,330,15.0,-999.0,-999,0.00,,,0.35,,2013-11-22 16:23:00,
2013-11-22 10:44:00,35.0,-99.9,-100.00,NNW,327,18.0,-999.0,-999,0.00,,,0.35,,2013-11-22 16:44:00,
2013-11-22 10:53:00,35.0,-99.9,-100.00,NNW,327,18.0,-999.0,-999,0.00,,,0.35,,2013-11-22 16:53:00,
2013-11-22 11:12:00,34.0,-99.9,-100.00,NW,324,15.0,-999.0,-999,0.00,,,0.35,,2013-11-22 17:12:00,
2013-11-22 11:22:00,34.0,-99.9,-100.00,NW,324,15.0,-999.0,-999,0.00,,,0.35,,2013-11-22 17:22:00,
2013-11-22 11:30:00,35.0,-99.9,-100.00,NW,316,12.0,-999.0,-999,0.00,,,0.29,,2013-11-22 17:30:00,
2013-11-22 11:42:00,34.0,-99.9,-100.00,NNW,331,12.0,-999.0,-999,0.00,,,0.32,,2013-11-22 17:42:00,
2013-11-22 11:53:00,34.0,-99.9,-100.00,NNW,331,12.0,-999.0,-999,0.00,,,0.32,,2013-11-22 17:53:00,
2013-11-22 12:12:00,35.0,-99.9,-100.00,NW,316,12.0,-999.0,-999,0.00,,,0.29,,2013-11-22 18:12:00,
2013-11-22 12:22:00,35.0,-99.9,-100.00,NW,316,12.0,-999.0,-999,0.00,,,0.29,,2013-11-22 18:22:00,
2013-11-22 13:11:00,35.0,-99.9,-100.00,NW,326,11.0,-999.0,-999,0.00,,,0.21,,2013-11-22 19:11:00,
2013-11-22 13:22:00,35.0,-99.9,-100.00,NW,326,11.0,-999.0,-999,0.00,,,0.21,,2013-11-22 19:22:00,
2013-11-22 13:42:00,36.0,-99.9,-100.00,NW,326,10.0,-999.0,-999,0.00,,,0.20,,2013-11-22 19:42:00,
2013-11-22 13:53:00,36.0,-99.9,-100.00,NW,326,10.0,-999.0,-999,0.00,,,0.20,,2013-11-22 19:53:00,
2013-11-22 14:12:00,36.0,-99.9,-100.00,NW,319,13.0,-999.0,-999,0.00,,,0.20,,2013-11-22 20:12:00,
2013-11-22 14:22:00,36.0,-99.9,-100.00,NW,319,13.0,-999.0,-999,0.00,,,0.20,,2013-11-22 20:22:00,
2013-11-22 14:42:00,37.0,-99.9,-100.00,NNW,336,17.0,-999.0,-999,0.00,,,0.18,,2013-11-22 20:42:00,
2013-11-22 14:52:00,37.0,-99.9,-100.00,NNW,336,17.0,-999.0,-999,0.00,,,0.18,,2013-11-22 20:52:00,
2013-11-22 15:11:00,36.0,-99.9,-100.00,NNW,341,19.0,-999.0,-999,0.00,,,0.16,,2013-11-22 21:11:00,
2013-11-22 15:22:00,36.0,-99.9,-100.00,NNW,341,19.0,-999.0,-999,0.00,,,0.16,,2013-11-22 21:22:00,
2013-11-22 15:44:00,37.0,-99.9,-100.00,North,351,15.0,-999.0,-999,0.00,,,0.15,,2013-11-22 21:44:00,
2013-11-22 15:53:00,37.0,-99.9,-100.00,North,351,15.0,-999.0,-999,0.00,,,0.15,,2013-11-22 21:53:00,
2013-11-22 16:13:00,37.0,-99.9,-100.00,NNW,339,14.0,-999.0,-999,0.00,,,0.14,,2013-11-22 22:13:00,
2013-11-22 16:23:00,37.0,-99.9,-100.00,NNW,339,14.0,-999.0,-999,0.00,,,0.14,,2013-11-22 22:23:00,
2013-11-22 16:42:00,37.0,-99.9,-100.00,North,351,11.0,-999.0,-999,0.00,,,0.14,,2013-11-22 22:42:00,
2013-11-22 16:53:00,37.0,-99.9,-100.00,North,351,11.0,-999.0,-999,0.00,,,0.14,,2013-11-22 22:53:00,
2013-11-22 17:12:00,38.0,-99.9,-100.00,NNW,339,9.0,-999.0,-999,0.00,,,0.14,,2013-11-22 23:12:00,
2013-11-22 17:22:00,38.0,-99.9,-100.00,NNW,339,9.0,-999.0,-999,0.00,,,0.14,,2013-11-22 23:22:00,
2013-11-22 17:42:00,37.0,-99.9,-100.00,NNW,335,14.0,-999.0,-999,0.00,,,0.14,,2013-11-22 23:42:00,
2013-11-22 17:53:00,37.0,-99.9,-100.00,NNW,335,14.0,-999.0,-999,0.00,,,0.14,,2013-11-22 23:53:00,
2013-11-22 18:12:00,37.0,-99.9,-100.00,NNW,329,13.0,-999.0,-999,0.00,,,0.14,,2013-11-23 00:12:00,
2013-11-22 18:22:00,37.0,-99.9,-100.00,NNW,329,13.0,-999.0,-999,0.00,,,0.14,,2013-11-23 00:22:00,
2013-11-22 18:42:00,36.0,-99.9,-100.00,NNW,339,12.0,-999.0,-999,0.00,,,0.14,,2013-11-23 00:42:00,
2013-11-22 18:52:00,36.0,-99.9,-100.00,NNW,339,12.0,-999.0,-999,0.00,,,0.14,,2013-11-23 00:52:00,
2013-11-22 19:11:00,36.0,-99.9,-100.00,North,354,8.0,-999.0,-999,0.00,,,0.14,,2013-11-23 01:11:00,
2013-11-22 19:22:00,36.0,-99.9,-100.00,North,354,8.0,-999.0,-999,0.00,,,0.14,,2013-11-23 01:22:00,
2013-11-22 19:42:00,35.0,-99.9,-100.00,NNW,341,8.0,-999.0,-999,0.00,,,0.14,,2013-11-23 01:42:00,
2013-11-22 19:53:00,35.0,-99.9,-100.00,NNW,341,8.0,-999.0,-999,0.00,,,0.14,,2013-11-23 01:53:00,
2013-11-22 20:11:00,35.0,-99.9,-100.00,NNW,327,10.0,-999.0,-999,0.00,,,0.14,,2013-11-23 02:11:00,
2013-11-22 20:22:00,35.0,-99.9,-100.00,NNW,327,10.0,-999.0,-999,0.00,,,0.14,,2013-11-23 02:22:00,
2013-11-22 20:42:00,34.0,-99.9,-100.00,NW,326,11.0,-999.0,-999,0.00,,,0.14,,2013-11-23 02:42:00,
2013-11-22 20:53:00,34.0,-99.9,-100.00,NW,326,11.0,-999.0,-999,0.00,,,0.14,,2013-11-23 02:53:00,
2013-11-22 21:12:00,34.0,-99.9,-100.00,NNW,328,11.0,-999.0,-999,0.00,,,0.14,,2013-11-23 03:12:00,
2013-11-22 21:22:00,34.0,-99.9,-100.00,NNW,328,11.0,-999.0,-999,0.00,,,0.14,,2013-11-23 03:22:00,
2013-11-22 21:44:00,33.0,-99.9,-100.00,NW,324,11.0,-999.0,-999,0.00,,,0.14,,2013-11-23 03:44:00,
2013-11-22 21:53:00,33.0,-99.9,-100.00,NW,324,11.0,-999.0,-999,0.00,,,0.14,,2013-11-23 03:53:00,
2013-11-22 22:13:00,32.0,-99.9,-100.00,NW,321,11.0,-999.0,-999,0.00,,,0.14,,2013-11-23 04:13:00,
2013-11-22 22:23:00,32.0,-99.9,-100.00,NW,321,11.0,-999.0,-999,0.00,,,0.14,,2013-11-23 04:23:00,
2013-11-22 22:43:00,31.0,-99.9,-100.00,NW,312,12.0,-999.0,-999,0.00,,,0.14,,2013-11-23 04:43:00,
2013-11-22 22:53:00,31.0,-99.9,-100.00,NW,312,12.0,-999.0,-999,0.00,,,0.14,,2013-11-23 04:53:00,
2013-11-22 23:12:00,30.0,-99.9,-100.00,NW,310,11.0,-999.0,-999,0.00,,,0.14,,2013-11-23 05:12:00,
2013-11-22 23:23:00,30.0,-99.9,-100.00,NW,310,11.0,-999.0,-999,0.00,,,0.14,,2013-11-23 05:23:00,
2013-11-22 23:43:00,29.0,-99.9,-100.00,WNW,299,8.0,-999.0,-999,0.00,,,0.11,,2013-11-23 05:43:00,
2013-11-22 23:53:00,29.0,-99.9,-100.00,WNW,299,8.0,-999.0,-999,0.00,,,0.11,,2013-11-23 05:53:00,